Glasgow, KY

11:31 AM CST on February 27, 2017 (GMT -0600)
Glasgow Municipal

Weather History for KGLW - March, 2014

Change the Weather History Date:

Wednesday, March 19, 2014

  Actual Average Record
Temperature  
Mean Temperature 52 °F -  
Max Temperature 62 °F 61 °F 84 °F (1982)
Min Temperature 42 °F 37 °F 19 °F (1965)
Degree Days  
Heating Degree Days 12    
Growing Degree Days 2 (Base 50)    
Moisture  
Dew Point 41 °F    
Average Humidity 67    
Maximum Humidity 80    
Minimum Humidity 38    
Precipitation  
Precipitation 0.00 in - - ()
Sea Level Pressure  
Sea Level Pressure 29.94 in    
Wind  
Wind Speed 12 mph (WSW)    
Max Wind Speed 20 mph    
Max Gust Speed 30 mph    
Visibility 10 miles    
Events Rain    
Averages and records for this station are not official NWS values.
T = Trace of Precipitation, MM = Missing Value Source: NWS Daily Summary

Daily Weather History Graph

Daily Weather History Graph

Search for Another Location

Airport or City:

Trip Planner

Search our weather history database for the weather conditions in past years. The results will help you decide how hot, cold, wet, or windy it might be!

Date:

Astronomy

Mar. 19, 2014 Rise Set
Actual Time 6:48 AM CDT 6:54 PM CDT
Civil Twilight 6:22 AM CDT 7:20 PM CDT
Nautical Twilight 5:52 AM CDT 7:50 PM CDT
Astronomical Twilight 5:22 AM CDT 8:21 PM CDT
Moon 10:07 PM CDT (3/19) 8:18 AM CDT (3/19)
Length of Visible Light 12h 57m
Length of Day
12h 05m
Waning Gibbous, 91% of the Moon is Illuminated
Mar 19
Waning Gibbous
Mar 23
Last Quarter
Mar 30
New
Apr 7
First Quarter
Apr 15
Full

Hourly Weather History & Observations

Time (CDT) Temp. Windchill Dew Point Humidity Pressure Visibility Wind Dir Wind Speed Gust Speed Precip Events Conditions
12:15 AM 48.9 °F - 41.0 °F 74% 29.91 in 10.0 mi SSW 12.7 mph 24.2 mph N/A   Scattered Clouds
12:35 AM 48.9 °F - 41.0 °F 74% 29.91 in 10.0 mi SSW 16.1 mph 21.9 mph N/A   Mostly Cloudy
12:55 AM 49.1 °F - 41.0 °F 74% 29.93 in 10.0 mi SW 11.5 mph 20.7 mph N/A   Mostly Cloudy
1:15 AM 48.9 °F - 41.0 °F 74% 29.94 in 10.0 mi SSW 11.5 mph 19.6 mph N/A   Overcast
1:35 AM 49.1 °F - 41.0 °F 74% 29.94 in 10.0 mi SSW 10.4 mph - N/A   Overcast
1:55 AM 49.3 °F - 41.0 °F 73% 29.93 in 10.0 mi SSW 10.4 mph - N/A   Overcast
2:15 AM 49.3 °F - 41.0 °F 73% 29.93 in 10.0 mi SSW 11.5 mph 17.3 mph N/A   Overcast
2:35 AM 49.3 °F - 41.2 °F 74% 29.93 in 10.0 mi SSW 11.5 mph 17.3 mph N/A   Overcast
2:55 AM 49.3 °F - 41.4 °F 74% 29.91 in 10.0 mi South 9.2 mph 17.3 mph N/A   Overcast
3:15 AM 49.3 °F - 41.5 °F 75% 29.90 in 10.0 mi South 12.7 mph 16.1 mph N/A   Overcast
3:35 AM 49.3 °F - 41.9 °F 76% 29.90 in 10.0 mi SSW 10.4 mph 19.6 mph N/A   Mostly Cloudy
3:55 AM 49.5 °F - 41.9 °F 75% 29.91 in 10.0 mi South 9.2 mph 17.3 mph N/A   Scattered Clouds
4:15 AM 49.3 °F - 42.3 °F 77% 29.90 in 10.0 mi South 11.5 mph - N/A   Mostly Cloudy
4:35 AM 49.5 °F - 42.4 °F 77% 29.91 in 10.0 mi South 6.9 mph - N/A   Mostly Cloudy
4:55 AM 49.6 °F - 42.6 °F 77% 29.90 in 10.0 mi South 10.4 mph - N/A   Overcast
5:15 AM 50.2 °F - 43.0 °F 76% 29.90 in 10.0 mi South 10.4 mph 17.3 mph N/A   Overcast
5:35 AM 50.5 °F - 43.2 °F 76% 29.90 in 10.0 mi South 12.7 mph 20.7 mph N/A   Overcast
5:55 AM 51.1 °F - 43.5 °F 75% 29.89 in 10.0 mi South 15.0 mph 24.2 mph N/A   Overcast
6:15 AM 51.4 °F - 43.7 °F 75% 29.90 in 10.0 mi SSW 12.7 mph 26.5 mph N/A   Overcast
6:35 AM 51.8 °F - 43.7 °F 74% 29.90 in 10.0 mi SSW 15.0 mph 24.2 mph N/A   Overcast
6:55 AM 51.8 °F - 43.7 °F 74% 29.90 in 10.0 mi SSW 13.8 mph 25.3 mph N/A   Overcast
7:15 AM 51.8 °F - 43.7 °F 74% 29.89 in 10.0 mi South 17.3 mph 21.9 mph N/A   Overcast
7:35 AM 51.8 °F - 43.7 °F 74% 29.89 in 10.0 mi South 12.7 mph 24.2 mph N/A   Overcast
7:55 AM 52.2 °F - 43.9 °F 73% 29.89 in 10.0 mi SSW 12.7 mph 21.9 mph N/A   Overcast
8:15 AM 52.3 °F - 44.1 °F 73% 29.88 in 10.0 mi SSW 13.8 mph 25.3 mph N/A   Overcast
8:35 AM 52.7 °F - 44.1 °F 72% 29.87 in 10.0 mi South 17.3 mph 25.3 mph N/A   Overcast
8:55 AM 53.2 °F - 44.2 °F 72% 29.87 in 10.0 mi South 16.1 mph 27.6 mph N/A   Overcast
9:15 AM 53.6 °F - 44.4 °F 71% 29.88 in 10.0 mi SSW 11.5 mph 26.5 mph N/A   Overcast
9:35 AM 53.6 °F - 44.4 °F 71% 29.88 in 10.0 mi SSW 12.7 mph 25.3 mph N/A   Overcast
9:55 AM 53.6 °F - 44.2 °F 71% 29.89 in 10.0 mi SSW 13.8 mph 24.2 mph N/A   Overcast
10:15 AM 53.6 °F - 44.6 °F 72% 29.90 in 10.0 mi SSW 17.3 mph 24.2 mph N/A   Overcast
10:35 AM 53.6 °F - 44.6 °F 72% 29.91 in 10.0 mi SW 15.0 mph 26.5 mph N/A   Overcast
10:55 AM 53.4 °F - 45.1 °F 74% 29.92 in 7.0 mi SW 17.3 mph 23.0 mph N/A   Overcast
11:15 AM 52.7 °F - 46.0 °F 78% 29.92 in 4.0 mi SW 15.0 mph 25.3 mph N/A   Drizzle
11:35 AM 52.5 °F - 46.4 °F 80% 29.92 in 10.0 mi SW 17.3 mph 23.0 mph N/A   Overcast
11:55 AM 52.9 °F - 46.4 °F 79% 29.92 in 10.0 mi SW 16.1 mph 27.6 mph N/A   Overcast
12:15 PM 52.9 °F - 46.6 °F 79% 29.92 in 7.0 mi SW 11.5 mph 20.7 mph N/A Rain Rain
12:35 PM 53.6 °F - 47.1 °F 79% 29.92 in 10.0 mi SW 18.4 mph 24.2 mph N/A   Overcast
12:55 PM 55.4 °F - 46.8 °F 73% 29.92 in 10.0 mi SSW 18.4 mph 26.5 mph N/A   Overcast
1:15 PM 54.9 °F - 46.2 °F 73% 29.91 in 10.0 mi SW 13.8 mph - N/A   Overcast
1:35 PM 57.9 °F - 46.8 °F 66% 29.90 in 10.0 mi SW 16.1 mph 21.9 mph N/A   Overcast
1:55 PM 58.8 °F - 46.2 °F 63% 29.90 in 10.0 mi SW 19.6 mph 23.0 mph N/A   Overcast
2:15 PM 59.2 °F - 46.0 °F 62% 29.89 in 10.0 mi WSW 15.0 mph 20.7 mph N/A   Mostly Cloudy
2:35 PM 58.6 °F - 45.3 °F 61% 29.90 in 10.0 mi WSW 15.0 mph 18.4 mph N/A   Overcast
2:55 PM 59.5 °F - 44.8 °F 58% 29.89 in 10.0 mi WSW 17.3 mph 25.3 mph N/A   Overcast
3:15 PM 61.9 °F - 41.5 °F 47% 29.90 in 10.0 mi West 15.0 mph 29.9 mph N/A   Mostly Cloudy
3:35 PM 62.1 °F - 37.4 °F 40% 29.91 in 10.0 mi West 15.0 mph 24.2 mph N/A   Mostly Cloudy
3:55 PM 62.6 °F - 36.5 °F 38% 29.91 in 10.0 mi West 10.4 mph 19.6 mph N/A   Mostly Cloudy
4:15 PM 62.2 °F - 36.3 °F 38% 29.92 in 10.0 mi West 17.3 mph 21.9 mph N/A   Overcast
4:35 PM 60.4 °F - 36.9 °F 42% 29.93 in 10.0 mi WNW 15.0 mph 20.7 mph N/A   Mostly Cloudy
4:55 PM 59.4 °F - 37.8 °F 45% 29.93 in 10.0 mi WNW 12.7 mph 18.4 mph N/A   Mostly Cloudy
5:15 PM 58.5 °F - 38.3 °F 47% 29.95 in 10.0 mi WNW 12.7 mph 18.4 mph N/A   Overcast
5:35 PM 57.6 °F - 38.7 °F 49% 29.96 in 10.0 mi WNW 10.4 mph 17.3 mph N/A   Overcast
5:55 PM 56.7 °F - 38.5 °F 51% 29.97 in 10.0 mi WNW 10.4 mph - N/A   Overcast
6:15 PM 55.9 °F - 38.5 °F 52% 29.98 in 10.0 mi WNW 11.5 mph 17.3 mph N/A   Overcast
6:35 PM 54.9 °F - 38.3 °F 54% 29.99 in 10.0 mi WNW 8.1 mph - N/A   Mostly Cloudy
6:55 PM 53.8 °F - 38.3 °F 56% 30.00 in 10.0 mi NW 6.9 mph - N/A   Mostly Cloudy
7:15 PM 52.7 °F - 38.3 °F 58% 30.01 in 10.0 mi WNW 5.8 mph - N/A   Mostly Cloudy
7:35 PM 52.5 °F - 38.3 °F 58% 30.01 in 10.0 mi WNW 5.8 mph - N/A   Mostly Cloudy
7:55 PM 51.1 °F - 37.8 °F 60% 30.02 in 10.0 mi NW 4.6 mph - N/A   Scattered Clouds
8:15 PM 50.2 °F - 37.6 °F 62% 30.03 in 10.0 mi WNW 4.6 mph - N/A   Clear
8:35 PM 49.5 °F - 37.4 °F 63% 30.04 in 10.0 mi WNW 3.5 mph - N/A   Clear
8:55 PM 48.6 °F - 37.0 °F 64% 30.05 in 10.0 mi NW 4.6 mph - N/A   Clear
9:15 PM 48.4 °F - 36.9 °F 64% 30.05 in 10.0 mi NW 5.8 mph - N/A   Clear
9:35 PM 47.8 °F - 36.5 °F 65% 30.07 in 10.0 mi NNW 4.6 mph - N/A   Clear
9:55 PM 46.2 °F 43.3 °F 36.5 °F 69% 30.07 in 10.0 mi NW 5.8 mph - N/A   Clear
10:15 PM 46.2 °F 43.3 °F 36.1 °F 68% 30.08 in 10.0 mi NW 5.8 mph - N/A   Clear
10:35 PM 45.3 °F 43.0 °F 35.4 °F 68% 30.09 in 10.0 mi NW 4.6 mph - N/A   Clear
10:55 PM 44.4 °F 42.9 °F 35.1 °F 70% 30.10 in 10.0 mi NW 3.5 mph - N/A   Clear
11:15 PM 43.7 °F 42.1 °F 34.9 °F 71% 30.10 in 10.0 mi NW 3.5 mph - N/A   Clear
11:35 PM 43.0 °F 39.5 °F 34.9 °F 73% 30.11 in 10.0 mi NW 5.8 mph - N/A   Clear
11:55 PM 42.4 °F 38.8 °F 34.3 °F 73% 30.12 in 10.0 mi NW 5.8 mph - N/A   Clear